Regional Weather Roundup
Issued by NWS Charleston, SC

Current Version | Previous Version | Graphics & Text | Print | Product List | Glossary On
Versions: 1 2 3 4 5 6 7 8 9 10 11 12 13 14 15 16 17 18 19 20 21 22 23 24 25 26 27 28 29 30 31 32 33 34 35 36 37 38 39 40 41 42 43 44 45 46 47 48 49 50
000
ASUS42 KCHS 021525
RWRCHS

REGIONAL WEATHER ROUNDUP
NATIONAL WEATHER SERVICE CHARLESTON SC
1100 AM EDT TUE SEP 02 2014

NOTE: "FAIR" INDICATES FEW OR NO CLOUDS BELOW 12,000 FEET WITH NO
SIGNIFICANT WEATHER AND/OR OBSTRUCTIONS TO VISIBILITY.

NOT ALL STATIONS ARE QUALITY CONTROLLED BY THE NATIONAL
WEATHER SERVICE. USE DATA WITH CAUTION...ESPECIALLY
DEWPOINT OBSERVATIONS.

SCZ027-030-031-034>040-042>050-021600-
...SOUTH CAROLINA...

CITY           SKY/WX    TMP DP  RH WIND       PRES   REMARKS
N CHARLESTON   MOSUNNY   90  74  59 SW3       30.09S HX  99
WATERFRONT PRK   N/A     88 N/A N/A S6          N/A
FORT JOHNSON   NOT AVBL
MOUNT PLEASANT FAIR      90  72  55 CALM      30.09S HX  96
JOHNS ISLAND   SUNNY     91  77  62 CALM      30.10S HX 105
PINOPOLIS        N/A     88  77  70 N2        30.02F HX 100
MONCKS CORNER    N/A     88  79  74 CALM      30.08F HX 102
SUMMERVILLE    FAIR      88  77  70 CALM      30.10S HX 100
BEAUFORT MCAS  MOSUNNY   90  74  59 SW5       30.09S HX  99
BEAUFORT ARPT  FAIR      88  77  70 S5        30.09F HX 100
HILTON HEAD IS SUNNY     90  73  58 S3        30.12R HX  98
GEORGETOWN     NOT AVBL
WALTERBORO     SUNNY     90  77  66 E3        30.10F HX 102
ORANGEBURG     PTSUNNY   88  73  61 CALM      30.09F HX  95
BARNWELL       FAIR      88  73  62 SE3       30.10F HX  96
AIKEN          FAIR      84  73  70 S5        30.13F HX  91
MANNING        FAIR      88  79  74 CALM      30.08F HX 102
KINGSTREE      NOT AVBL
COLUMBIA       MOSUNNY   89  71  55 CALM      30.08S HX  95
SUMTER         SUNNY     87  73  64 VRB1      30.07F HX  94
FLORENCE       SUNNY     88  74  63 W6        30.08S HX  96
MYRTLE BEACH   MOSUNNY   88  75  66 W6        30.10S HX  97
N MYRTLE BEACH NOT AVBL

$$

GAZ063-065-086>088-099>101-113>116-118-119-134-136>141-150-021600-
...GEORGIA...

CITY           SKY/WX    TMP DP  RH WIND       PRES   REMARKS
SAVANNAH ARPT  MOSUNNY   90  73  57 E3        30.09F HX  98
HUNTER AAF     SUNNY     89  76  64 VRB5      30.08S HX  99
FORT STEWART   MOSUNNY   88  74  62 CALM      30.08S HX  96
STATESBORO     NOT AVBL
SYLVANIA       SUNNY     89  77  69 CALM      30.10F HX 101
CLAXTON        NOT AVBL
THOMSON        PTSUNNY   87  77  72 W7        30.15S HX  97
AUGUSTA-BUSH   PTSUNNY   81  75  82 SW3       30.09F
AUGUSTA-DANIEL PTSUNNY   82  72  71 VRB3      30.11F
SWAINSBORO     FAIR      88  75  66 NW3       30.11F HX  97
VIDALIA        LGT RAIN  79  75  89 CALM      30.12S
ALMA           PTSUNNY   82  72  71 NW8       30.11S HAZE
WAYCROSS       MOSUNNY   89  77  66 NW6       30.10F HX 102
JESUP            N/A     90  73  58 W3        30.10S HX  98
BRUNSWICK      SUNNY     90  72  55 SW7       30.11S HX  96
SAINT SIMONS   SUNNY     86  75  69 VRB6      30.10R HX  95

$$

SCZ027-028-034-036>038-045-046-048>050-GAZ119-141-021600-
...LAKE AND SUPPLEMENTAL COASTAL OBSERVATIONS...

STATION/POSITION TIME  TEMP    WIND        PRES    WAVE   SWELL
                       AIR SEA DIR/SP/G            HT/PER HT/PER/DIR
                 (UTC) (F)     (DEG/KT/KT) (MB)    (FT/S) (FT/S/D)
UPR LAKE MARION  NOT AVBL
WINYAH BAY       1500   85     300/  4     1019.0S
LAKE MURRAY      1400   84     170/  5/  6 1017.9F
ACE BASIN NERRS  1500   87     220/  1     1019.0S
FORT PULASKI     1500   86     140/  3/  5 1019.5R
SAPELO ISLAND    1500   89     170/  6     1020.0S

$$

ANZ835-935-AMZ111-154-330-350-352-354-374-450-454-472-021600-
...C-MAN AND BUOY OBSERVATIONS...

STATION/POSITION TIME  TEMP    WIND        PRES    WAVE   SWELL
                       AIR SEA DIR/SP/G            HT/PER HT/PER/DIR
                 (UTC) (F)     (DEG/KT/KT) (MB)    (FT/S) (FT/S/D)
FOLLY BEACH CMAN 1500   87     190/  6/  8 1019.7R
BUOY 41004       1500   83 83  230/  2/  2 1019.1R   2/ 8   2/ 8
BUOY 41008       1500   83 85  220/  8/ 10 1019.5R   2/ 8   2/ 90/ 8
5E ST. MARYS GA  1500      84                N/A     2/ 9
FRYING PAN BUOY  NOT AVBL
BUOY 41025       1500   81     220/ 10/ 12 1018.6F   3/ 5   2/110/ 8
CAPE LOOKOUT NC  1500   83     240/ 10/ 12 1018.7F
BUOY 41002       1450   82 83  210/  8/ 10 1021.5R   3/ 8   3/110/ 8
BUOY 41010       1500   83 84  100/  6/  8 1019.8F   3/12   3/ 40/12
BUOY 41012       NOT AVBL
ST AUGUSTINE FL  1500   83     130/  4/  5 1020.6R
CAPERS NEARSHORE NOT AVBL
FRIPP NEARSHORE  NOT AVBL


$$



USA.gov is the U.S. government's official web portal to all federal, state and local government web resources and services.